Retour au catalogue

WEILI KONGJIAN 05-03

ActifNavigationLEO
NORAD 69584·PAYLOAD·🇨🇳 China
Ce nom de satellite n'a pas encore été confirmé par des sources officielles.

Lancé Jun 17, 2026 depuis Jiuquan Satellite Launch Center

Loading…

Prochains Passages (prochaines 24 heures)

TLE

FraisSource: Space-Track

Époque: Sep 14, 2026, 04:05 UTC

1 69584U 26138C   26257.17072685 -.00000007  00000-0  83798-4 0  9997
2 69584  55.1411 313.0774 0008037 262.8981  97.1076 14.08162345 12614

Suivez WEILI KONGJIAN 05-03 en temps réel avec AllMySat

Download on the App Store